Location: El Portezuelo
(28.4984°N, 16.3589°W)
Time: 02:11:01
(UTC+00:00)

Meteor 1-21 Rocket - Pass Details

Date: 20 January 2020
Orbit: 834 x 906 km, 81.2° (Epoch: 22 February)

Event Time Altitude Azimuth Distance (km) Brightness Sun altitude
Rises 06:40:01 0° 354° (N) 3,512 7.2 -17.1°
Reaches altitude 10° 06:42:28 10° 355° (N) 2,576 6.5 -16.6°
Maximum altitude 06:48:22 81° 83° (E) 919 4.4 -15.4°
Drops below altitude 10° 06:54:16 10° 170° (S) 2,578 7.0 -14.1°
Sets 06:56:44 0° 172° (S) 3,515 7.8 -13.6°
